N978PJ FPST-GMMH

Flight info

Callsign N978PJ
Flight time 4h 56m
Altitude 47000
Route FPST/11 KOPOX UR979 AD UG851 BKY G851 GUREL UG851 BUNLI G851 TAMUL UG851 MIYEC N728 KEMUL ARENA L660 DKH RNV03 LARMO GMMH/03
Aircraft C750/M-SDE3FGIJ1KRWXY/LB1

Departure

Time 2026-04-20 07:35
Airport São Tomé International Airport (FPST)

Arrival

Time 2026-04-20 12:31
Airport Dakhla Airport (GMMH)
Time Latitude Longitude Altitude Speed Heading
2026-04-20 06:22 0.37536 6.71274 31 ft 0 kts 279°
2026-04-20 07:24 0.37535 6.71280 31 ft 4 kts 279°
2026-04-20 07:24 0.37532 6.71303 31 ft 0 kts 279°
2026-04-20 07:29 0.37538 6.71294 31 ft 4 kts 317°
2026-04-20 07:29 0.37572 6.71278 31 ft 5 kts 337°
2026-04-20 07:29 0.37616 6.71274 32 ft 9 kts
2026-04-20 07:30 0.37687 6.71289 32 ft 10 kts 13°
2026-04-20 07:30 0.37751 6.71304 32 ft 9 kts 13°
2026-04-20 07:30 0.37805 6.71272 33 ft 14 kts 285°
2026-04-20 07:30 0.37837 6.71138 33 ft 25 kts 283°
2026-04-20 07:31 0.37880 6.70957 36 ft 27 kts 283°
2026-04-20 07:31 0.37926 6.70770 37 ft 27 kts 284°
2026-04-20 07:31 0.37969 6.70595 39 ft 24 kts 284°
2026-04-20 07:31 0.38007 6.70437 42 ft 23 kts 283°
2026-04-20 07:32 0.38055 6.70289 44 ft 19 kts 289°
2026-04-20 07:32 0.38023 6.70253 44 ft 7 kts 132°
2026-04-20 07:32 0.38037 6.70306 43 ft 10 kts 84°
2026-04-20 07:32 0.38028 6.70350 43 ft 0 kts 103°
2026-04-20 07:33 0.38016 6.70398 42 ft 0 kts 104°
2026-04-20 07:34 0.38015 6.70401 42 ft 7 kts 104°
2026-04-20 07:34 0.37923 6.70784 37 ft 112 kts 103°
2026-04-20 07:34 0.37685 6.71758 120 ft 161 kts 104°
2026-04-20 07:35 0.37157 6.74195 1057 ft 196 kts 103°
2026-04-20 07:35 0.37018 6.75627 1581 ft 223 kts 88°
2026-04-20 07:35 0.37504 6.77159 2224 ft 239 kts 61°
2026-04-20 07:35 0.38725 6.78337 2959 ft 255 kts 32°
2026-04-20 07:36 0.40443 6.78906 3754 ft 265 kts 11°
2026-04-20 07:36 0.42238 6.78840 5006 ft 255 kts 350°
2026-04-20 07:36 0.43821 6.78104 6123 ft 251 kts 327°
2026-04-20 07:36 0.45001 6.76779 6854 ft 265 kts 304°
2026-04-20 07:37 0.45721 6.75014 7415 ft 285 kts 289°
2026-04-20 07:37 0.46344 6.73081 8151 ft 292 kts 290°
2026-04-20 07:37 0.46956 6.71193 9355 ft 286 kts 290°
2026-04-20 07:37 0.47572 6.69258 10016 ft 297 kts 290°
2026-04-20 07:38 0.48103 6.67257 10816 ft 299 kts 285°
2026-04-20 07:38 0.48551 6.65224 11522 ft 302 kts 284°
2026-04-20 07:38 0.48994 6.63161 12144 ft 305 kts 284°
2026-04-20 07:38 0.49443 6.61082 12823 ft 307 kts 284°
2026-04-20 07:39 0.49898 6.58987 13498 ft 309 kts 284°
2026-04-20 07:39 0.50458 6.56905 14078 ft 311 kts 291°
2026-04-20 07:39 0.51352 6.54941 14686 ft 310 kts 299°
2026-04-20 07:39 0.52322 6.53015 15289 ft 312 kts 298°
2026-04-20 07:40 0.53179 6.51012 15898 ft 315 kts 293°
2026-04-20 07:40 0.53952 6.48955 16526 ft 317 kts 292°
2026-04-20 07:40 0.54768 6.46906 17171 ft 319 kts 294°
2026-04-20 07:40 0.55631 6.44859 17824 ft 321 kts 294°
2026-04-20 07:41 0.56488 6.42791 18433 ft 323 kts 294°
2026-04-20 07:41 0.57334 6.40701 19011 ft 325 kts 293°
2026-04-20 07:41 0.58187 6.38602 19600 ft 327 kts 293°
2026-04-20 07:41 0.59054 6.36491 20199 ft 330 kts 293°
2026-04-20 07:42 0.59927 6.34362 20806 ft 332 kts 293°
2026-04-20 07:42 0.60803 6.32217 21399 ft 335 kts 292°
2026-04-20 07:42 0.61686 6.30057 22009 ft 337 kts 292°
2026-04-20 07:42 0.62577 6.27879 22610 ft 340 kts 292°
2026-04-20 07:43 0.63476 6.25681 23195 ft 344 kts 292°
2026-04-20 07:43 0.64383 6.23463 23731 ft 346 kts 292°
2026-04-20 07:43 0.65297 6.21228 24234 ft 349 kts 292°
2026-04-20 07:43 0.66218 6.18977 24736 ft 351 kts 292°
2026-04-20 07:44 0.67145 6.16708 25256 ft 354 kts 292°
2026-04-20 07:44 0.68078 6.14428 25774 ft 356 kts 292°
2026-04-20 07:44 0.69016 6.12134 26297 ft 358 kts 292°
2026-04-20 07:44 0.69961 6.09825 26819 ft 360 kts 292°
2026-04-20 07:45 0.70910 6.07504 27333 ft 363 kts 292°
2026-04-20 07:45 0.71865 6.05166 27860 ft 365 kts 292°
2026-04-20 07:45 0.72828 6.02811 28378 ft 367 kts 292°
2026-04-20 07:45 0.73797 6.00443 28896 ft 369 kts 292°
2026-04-20 07:46 0.74771 5.98062 29395 ft 372 kts 292°
2026-04-20 07:46 0.75753 5.95660 29897 ft 374 kts 292°
2026-04-20 07:46 0.76740 5.93246 30295 ft 377 kts 292°
2026-04-20 07:46 0.77737 5.90807 30646 ft 381 kts 292°
2026-04-20 07:47 0.78743 5.88346 31008 ft 385 kts 292°
2026-04-20 07:47 0.79759 5.85860 31369 ft 389 kts 292°
2026-04-20 07:47 0.80787 5.83347 31828 ft 392 kts 292°
2026-04-20 07:47 0.81822 5.80816 32252 ft 396 kts 291°
2026-04-20 07:48 0.82869 5.78255 32700 ft 400 kts 291°
2026-04-20 07:48 0.83925 5.75672 33165 ft 403 kts 291°
2026-04-20 07:48 0.84991 5.73065 33606 ft 407 kts 291°
2026-04-20 07:48 0.86064 5.70441 34035 ft 410 kts 291°
2026-04-20 07:49 0.87144 5.67798 34464 ft 412 kts 291°
2026-04-20 07:49 0.88230 5.65141 34899 ft 414 kts 291°
2026-04-20 07:49 0.89321 5.62472 35324 ft 416 kts 291°
2026-04-20 07:49 0.90417 5.59791 35747 ft 417 kts 291°
2026-04-20 07:50 0.91517 5.57102 36152 ft 419 kts 291°
2026-04-20 07:50 0.92622 5.54399 36448 ft 422 kts 291°
2026-04-20 07:50 0.93939 5.51771 36710 ft 426 kts 301°
2026-04-20 07:50 0.95719 5.49399 37051 ft 428 kts 311°
2026-04-20 07:51 0.97899 5.47363 37374 ft 430 kts 321°
2026-04-20 07:51 0.99486 5.46176 37604 ft 431 kts 324°
2026-04-20 07:51 1.01966 5.44470 37918 ft 433 kts 325°
2026-04-20 07:51 1.04409 5.42698 38194 ft 436 kts 321°
2026-04-20 07:52 1.06729 5.40735 38534 ft 437 kts 318°
2026-04-20 07:52 1.09022 5.38751 38903 ft 436 kts 320°
2026-04-20 07:52 1.11394 5.36873 39286 ft 435 kts 322°
2026-04-20 07:52 1.13787 5.35029 39661 ft 434 kts 321°
2026-04-20 07:53 1.16128 5.33137 40044 ft 432 kts 319°
2026-04-20 07:53 1.18441 5.31223 40422 ft 431 kts 320°
2026-04-20 07:53 1.20772 5.29339 40819 ft 430 kts 320°
2026-04-20 07:53 1.23106 5.27486 41212 ft 428 kts 320°
2026-04-20 07:54 1.25427 5.25623 41576 ft 427 kts 320°
2026-04-20 07:54 1.27727 5.23755 41906 ft 426 kts 320°
2026-04-20 07:54 1.30029 5.21893 42252 ft 425 kts 320°
2026-04-20 07:54 1.32333 5.20043 42598 ft 424 kts 320°
2026-04-20 07:55 1.34624 5.18201 42932 ft 422 kts 320°
2026-04-20 07:55 1.36905 5.16359 43251 ft 421 kts 320°
2026-04-20 07:55 1.39178 5.14523 43563 ft 420 kts 320°
2026-04-20 07:55 1.41449 5.12694 43859 ft 419 kts 320°
2026-04-20 07:56 1.43714 5.10870 44131 ft 418 kts 320°
2026-04-20 07:56 1.45975 5.09047 44397 ft 417 kts 320°
2026-04-20 07:56 1.48230 5.07228 44617 ft 417 kts 320°
2026-04-20 07:56 1.50488 5.05408 44781 ft 417 kts 320°
2026-04-20 07:57 1.52748 5.03587 44952 ft 417 kts 320°
2026-04-20 07:57 1.55007 5.01765 45109 ft 417 kts 320°
2026-04-20 07:57 1.57266 4.99944 45277 ft 417 kts 320°
2026-04-20 07:57 1.59521 4.98125 45429 ft 417 kts 320°
2026-04-20 07:58 1.61783 4.96302 45565 ft 417 kts 319°
2026-04-20 07:58 1.64045 4.94478 45708 ft 417 kts 319°
2026-04-20 07:58 1.66304 4.92657 45849 ft 417 kts 319°
2026-04-20 07:58 1.68564 4.90834 45979 ft 418 kts 319°
2026-04-20 07:59 1.70824 4.89012 46110 ft 417 kts 319°
2026-04-20 07:59 1.73083 4.87190 46243 ft 417 kts 319°
2026-04-20 07:59 1.75343 4.85367 46358 ft 418 kts 319°
2026-04-20 07:59 1.77602 4.83546 46500 ft 417 kts 319°
2026-04-20 08:00 1.79856 4.81727 46620 ft 417 kts 320°
2026-04-20 08:00 1.82112 4.79908 46728 ft 417 kts 320°
2026-04-20 08:00 1.86631 4.76263 46873 ft 419 kts 320°
2026-04-20 08:01 1.91199 4.72578 46876 ft 425 kts 320°
2026-04-20 08:01 1.95836 4.68838 46866 ft 432 kts 320°
2026-04-20 08:02 2.00551 4.65034 46876 ft 438 kts 320°
2026-04-20 08:02 2.05332 4.61177 46864 ft 445 kts 320°
2026-04-20 08:03 2.10187 4.57260 46875 ft 451 kts 320°
2026-04-20 08:03 2.15100 4.53295 46873 ft 457 kts 320°
2026-04-20 08:04 2.20081 4.49276 46864 ft 463 kts 320°
2026-04-20 08:04 2.25125 4.45205 46869 ft 469 kts 320°
2026-04-20 08:05 2.30226 4.41087 46883 ft 474 kts 320°
2026-04-20 08:05 2.35386 4.36922 46876 ft 479 kts 320°
2026-04-20 08:06 2.40601 4.32712 46868 ft 484 kts 320°
2026-04-20 08:06 2.45857 4.28469 46869 ft 488 kts 320°
2026-04-20 08:07 2.51152 4.24193 46872 ft 490 kts 320°
2026-04-20 08:07 2.56467 4.19901 46874 ft 492 kts 320°
2026-04-20 08:08 2.61769 4.15619 46861 ft 494 kts 320°
2026-04-20 08:08 2.67154 4.11269 46875 ft 495 kts 320°
2026-04-20 08:09 2.72516 4.06937 46851 ft 496 kts 320°
2026-04-20 08:09 2.77892 4.02595 46862 ft 497 kts 320°
2026-04-20 08:10 2.83272 3.98247 46862 ft 497 kts 320°
2026-04-20 08:10 2.88654 3.93897 46866 ft 497 kts 320°
2026-04-20 08:11 2.94037 3.89547 46866 ft 498 kts 320°
2026-04-20 08:11 2.99427 3.85190 46855 ft 498 kts 320°
2026-04-20 08:12 3.04814 3.80836 46851 ft 498 kts 320°
2026-04-20 08:12 3.10211 3.76472 46857 ft 498 kts 320°
2026-04-20 08:13 3.15603 3.72112 46850 ft 499 kts 320°
2026-04-20 08:13 3.20996 3.67750 46860 ft 498 kts 320°
2026-04-20 08:14 3.26385 3.63390 46877 ft 498 kts 320°
2026-04-20 08:14 3.31744 3.59056 46850 ft 499 kts 320°
2026-04-20 08:15 3.37140 3.54690 46857 ft 499 kts 320°
2026-04-20 08:15 3.42536 3.50323 46849 ft 499 kts 320°
2026-04-20 08:16 3.47929 3.45958 46858 ft 499 kts 320°
2026-04-20 08:16 3.53320 3.41594 46855 ft 498 kts 320°
2026-04-20 08:17 3.58715 3.37227 46853 ft 498 kts 320°
2026-04-20 08:17 3.64104 3.32863 46853 ft 498 kts 320°
2026-04-20 08:18 3.69491 3.28501 46855 ft 498 kts 319°
2026-04-20 08:18 3.74877 3.24138 46857 ft 498 kts 319°
2026-04-20 08:19 3.80254 3.19782 46858 ft 497 kts 319°
2026-04-20 08:19 3.85628 3.15428 46866 ft 497 kts 319°
2026-04-20 08:20 3.90995 3.11078 46865 ft 496 kts 319°
2026-04-20 08:20 3.96355 3.06734 46866 ft 495 kts 319°
2026-04-20 08:21 4.01710 3.02395 46863 ft 495 kts 320°
2026-04-20 08:21 4.07079 2.98088 46864 ft 494 kts 320°
2026-04-20 08:22 4.12430 2.93776 46865 ft 493 kts 320°
2026-04-20 08:22 4.17778 2.89474 46864 ft 492 kts 320°
2026-04-20 08:23 4.23114 2.85177 46866 ft 492 kts 320°
2026-04-20 08:23 4.28440 2.80889 46869 ft 491 kts 320°
2026-04-20 08:24 4.33760 2.76605 46866 ft 490 kts 320°
2026-04-20 08:24 4.39072 2.72326 46865 ft 490 kts 320°
2026-04-20 08:25 4.44375 2.68054 46865 ft 489 kts 320°
2026-04-20 08:25 4.49672 2.63786 46866 ft 488 kts 320°
2026-04-20 08:26 4.54959 2.59525 46864 ft 487 kts 320°
2026-04-20 08:26 4.60238 2.55270 46868 ft 487 kts 320°
2026-04-20 08:27 4.65510 2.51019 46862 ft 486 kts 320°
2026-04-20 08:27 4.70775 2.46773 46859 ft 486 kts 320°
2026-04-20 08:28 4.76035 2.42531 46857 ft 485 kts 320°
2026-04-20 08:28 4.81289 2.38292 46861 ft 485 kts 320°
2026-04-20 08:29 4.86538 2.34057 46872 ft 484 kts 320°
2026-04-20 08:29 4.91783 2.29824 46861 ft 484 kts 320°
2026-04-20 08:30 4.97024 2.25593 46863 ft 484 kts 320°
2026-04-20 08:30 5.02263 2.21363 46865 ft 483 kts 320°
2026-04-20 08:31 5.07497 2.17135 46865 ft 483 kts 320°
2026-04-20 08:31 5.12725 2.12907 46865 ft 483 kts 320°
2026-04-20 08:32 5.17952 2.08681 46863 ft 482 kts 320°
2026-04-20 08:32 5.23175 2.04457 46857 ft 482 kts 320°
2026-04-20 08:33 5.31009 1.98119 46863 ft 482 kts 320°
2026-04-20 08:34 5.35346 1.94610 46866 ft 482 kts 320°
2026-04-20 08:34 5.40563 1.90387 46860 ft 482 kts 320°
2026-04-20 08:35 5.45778 1.86166 46858 ft 482 kts 320°
2026-04-20 08:35 5.50990 1.81945 46863 ft 481 kts 320°
2026-04-20 08:36 5.56192 1.77718 46857 ft 481 kts 319°
2026-04-20 08:36 5.61377 1.73476 46865 ft 481 kts 319°
2026-04-20 08:37 5.66566 1.69248 46865 ft 480 kts 319°
2026-04-20 08:37 5.71747 1.65015 46867 ft 480 kts 319°
2026-04-20 08:38 5.76927 1.60788 46864 ft 480 kts 319°
2026-04-20 08:38 5.82101 1.56561 46863 ft 479 kts 319°
2026-04-20 08:39 5.87274 1.52336 46854 ft 479 kts 319°
2026-04-20 08:39 5.92445 1.48110 46862 ft 479 kts 319°
2026-04-20 08:40 5.97612 1.43887 46872 ft 479 kts 319°
2026-04-20 08:40 6.02774 1.39667 46880 ft 478 kts 319°
2026-04-20 08:41 6.07933 1.35448 46884 ft 478 kts 319°
2026-04-20 08:41 6.13092 1.31229 46882 ft 478 kts 319°
2026-04-20 08:42 6.18376 1.27177 46864 ft 480 kts 327°
2026-04-20 08:42 6.24501 1.24493 46894 ft 482 kts 338°
2026-04-20 08:43 6.30792 1.22147 46892 ft 482 kts 336°
2026-04-20 08:43 6.37046 1.19683 46880 ft 483 kts 337°
2026-04-20 08:44 6.43350 1.17297 46879 ft 484 kts 337°
2026-04-20 08:44 6.49641 1.14847 46865 ft 486 kts 337°
2026-04-20 08:45 6.55964 1.12429 46860 ft 486 kts 337°
2026-04-20 08:45 6.62283 1.09984 46856 ft 487 kts 337°
2026-04-20 08:46 6.68615 1.07550 46864 ft 487 kts 337°
2026-04-20 08:46 6.74953 1.05103 46855 ft 489 kts 337°
2026-04-20 08:47 6.81310 1.02653 46863 ft 490 kts 337°
2026-04-20 08:47 6.87677 1.00197 46881 ft 490 kts 337°
2026-04-20 08:48 6.94054 0.97737 46879 ft 491 kts 337°
2026-04-20 08:48 7.00441 0.95271 46870 ft 492 kts 337°
2026-04-20 08:49 7.06839 0.92802 46874 ft 493 kts 337°
2026-04-20 08:49 7.13242 0.90329 46873 ft 493 kts 337°
2026-04-20 08:50 7.19657 0.87851 46894 ft 494 kts 337°
2026-04-20 08:50 7.26074 0.85371 46892 ft 494 kts 337°
2026-04-20 08:51 7.32503 0.82886 46884 ft 495 kts 337°
2026-04-20 08:51 7.38937 0.80399 46878 ft 496 kts 337°
2026-04-20 08:52 7.45379 0.77907 46879 ft 496 kts 337°
2026-04-20 08:52 7.51824 0.75414 46879 ft 497 kts 337°
2026-04-20 08:53 7.58276 0.72917 46890 ft 497 kts 337°
2026-04-20 08:53 7.64731 0.70418 46894 ft 497 kts 337°
2026-04-20 08:54 7.71192 0.67915 46893 ft 497 kts 337°
2026-04-20 08:54 7.77651 0.65414 46896 ft 497 kts 337°
2026-04-20 08:55 7.84109 0.62911 46894 ft 497 kts 337°
2026-04-20 08:55 7.90561 0.60410 46885 ft 497 kts 337°
2026-04-20 08:56 7.97007 0.57910 46889 ft 496 kts 337°
2026-04-20 08:56 8.03108 0.54769 46864 ft 491 kts 322°
2026-04-20 08:57 8.08187 0.50217 46890 ft 487 kts 313°
2026-04-20 08:57 8.13174 0.45589 46882 ft 488 kts 318°
2026-04-20 08:58 8.18287 0.41104 46876 ft 486 kts 315°
2026-04-20 08:58 8.23286 0.36503 46865 ft 486 kts 317°
2026-04-20 08:59 8.28363 0.31993 46860 ft 486 kts 316°
2026-04-20 08:59 8.33377 0.27426 46856 ft 485 kts 316°
2026-04-20 09:00 8.38422 0.22902 46856 ft 485 kts 316°
2026-04-20 09:00 8.43436 0.18359 46853 ft 484 kts 316°
2026-04-20 09:01 8.48455 0.13837 46856 ft 483 kts 316°
2026-04-20 09:01 8.53465 0.09307 46848 ft 483 kts 316°
2026-04-20 09:02 8.58475 0.04782 46848 ft 483 kts 316°
2026-04-20 09:02 8.63478 0.00259 46844 ft 483 kts 316°
2026-04-20 09:03 8.68481 -0.04259 46845 ft 482 kts 316°
2026-04-20 09:03 8.73490 -0.08775 46848 ft 482 kts 316°
2026-04-20 09:04 8.78494 -0.13295 46841 ft 482 kts 316°
2026-04-20 09:04 8.83497 -0.17811 46850 ft 482 kts 316°
2026-04-20 09:05 8.88495 -0.22328 46852 ft 482 kts 316°
2026-04-20 09:05 8.93498 -0.26848 46863 ft 482 kts 316°
2026-04-20 09:06 8.98493 -0.31366 46838 ft 482 kts 315°
2026-04-20 09:06 9.03487 -0.35881 46858 ft 481 kts 315°
2026-04-20 09:07 9.08473 -0.40393 46837 ft 481 kts 315°
2026-04-20 09:07 9.13455 -0.44902 46845 ft 480 kts 315°
2026-04-20 09:08 9.18436 -0.49413 46837 ft 480 kts 315°
2026-04-20 09:08 9.23406 -0.53915 46856 ft 479 kts 315°
2026-04-20 09:09 9.28369 -0.58412 46857 ft 479 kts 315°
2026-04-20 09:09 9.33331 -0.62911 46835 ft 479 kts 315°
2026-04-20 09:10 9.38290 -0.67409 46827 ft 478 kts 315°
2026-04-20 09:10 9.43243 -0.71903 46824 ft 478 kts 315°
2026-04-20 09:11 9.48188 -0.76391 46827 ft 477 kts 315°
2026-04-20 09:11 9.53127 -0.80876 46829 ft 477 kts 315°
2026-04-20 09:12 9.57540 -0.85793 46837 ft 469 kts 301°
2026-04-20 09:12 9.60493 -0.91623 46842 ft 464 kts 292°
2026-04-20 09:13 9.63202 -0.97567 46837 ft 465 kts 292°
2026-04-20 09:13 9.65905 -1.03510 46835 ft 464 kts 292°
2026-04-20 09:14 9.68603 -1.09449 46839 ft 464 kts 292°
2026-04-20 09:14 9.70846 -1.14381 46845 ft 463 kts 292°
2026-04-20 09:15 9.73539 -1.20317 46835 ft 463 kts 292°
2026-04-20 09:15 9.76250 -1.26286 46842 ft 463 kts 292°
2026-04-20 09:16 9.78935 -1.32208 46843 ft 462 kts 292°
2026-04-20 09:16 9.81617 -1.38123 46840 ft 462 kts 292°
2026-04-20 09:17 9.84280 -1.44001 46844 ft 462 kts 292°
2026-04-20 09:17 9.86958 -1.49913 46843 ft 461 kts 292°
2026-04-20 09:18 9.89633 -1.55822 46850 ft 461 kts 292°
2026-04-20 09:18 9.92304 -1.61727 46846 ft 460 kts 292°
2026-04-20 09:19 9.94972 -1.67629 46860 ft 460 kts 292°
2026-04-20 09:19 9.97638 -1.73528 46855 ft 460 kts 292°
2026-04-20 09:20 10.00300 -1.79422 46862 ft 459 kts 292°
2026-04-20 09:20 10.02959 -1.85313 46865 ft 459 kts 292°
2026-04-20 09:21 10.05616 -1.91203 46862 ft 459 kts 292°
2026-04-20 09:21 10.08268 -1.97085 46868 ft 458 kts 292°
2026-04-20 09:22 10.10918 -2.02965 46871 ft 458 kts 292°
2026-04-20 09:22 10.13565 -2.08842 46860 ft 458 kts 292°
2026-04-20 09:23 10.16210 -2.14718 46856 ft 458 kts 292°
2026-04-20 09:23 10.18853 -2.20594 46854 ft 457 kts 292°
2026-04-20 09:24 10.21365 -2.26512 46848 ft 455 kts 287°
2026-04-20 09:24 10.23429 -2.32575 46868 ft 454 kts 288°
2026-04-20 09:25 10.25525 -2.38628 46875 ft 454 kts 287°
2026-04-20 09:25 10.27594 -2.44685 46872 ft 454 kts 288°
2026-04-20 09:26 10.29677 -2.50739 46865 ft 454 kts 287°
2026-04-20 09:26 10.31749 -2.56793 46874 ft 454 kts 287°
2026-04-20 09:27 10.33826 -2.62848 46878 ft 454 kts 287°
2026-04-20 09:27 10.35898 -2.68904 46872 ft 454 kts 287°
2026-04-20 09:28 10.37970 -2.74956 46873 ft 454 kts 287°
2026-04-20 09:28 10.40040 -2.81009 46870 ft 454 kts 288°
2026-04-20 09:29 10.42576 -2.86875 46870 ft 454 kts 295°
2026-04-20 09:29 10.45373 -2.92625 46874 ft 454 kts 294°
2026-04-20 09:30 10.48184 -2.98370 46877 ft 454 kts 294°
2026-04-20 09:30 10.50988 -3.04114 46870 ft 454 kts 294°
2026-04-20 09:31 10.53790 -3.09859 46866 ft 454 kts 294°
2026-04-20 09:31 10.56593 -3.15604 46871 ft 453 kts 294°
2026-04-20 09:32 10.59391 -3.21346 46870 ft 453 kts 294°
2026-04-20 09:32 10.62187 -3.27086 46867 ft 453 kts 294°
2026-04-20 09:33 10.64998 -3.32860 46876 ft 452 kts 294°
2026-04-20 09:33 10.67788 -3.38592 46871 ft 452 kts 294°
2026-04-20 09:34 10.70573 -3.44319 46875 ft 452 kts 294°
2026-04-20 09:34 10.74743 -3.52901 46871 ft 451 kts 295°
2026-04-20 09:35 10.77518 -3.58614 46872 ft 450 kts 295°
2026-04-20 09:35 10.80291 -3.64328 46879 ft 450 kts 295°
2026-04-20 09:36 10.83059 -3.70033 46874 ft 450 kts 295°
2026-04-20 09:36 10.85825 -3.75737 46875 ft 449 kts 295°
2026-04-20 09:37 10.88585 -3.81434 46877 ft 448 kts 295°
2026-04-20 09:37 10.91340 -3.87124 46873 ft 448 kts 295°
2026-04-20 09:38 10.94092 -3.92808 46870 ft 448 kts 295°
2026-04-20 09:38 10.96838 -3.98486 46873 ft 447 kts 295°
2026-04-20 09:39 10.99561 -4.04118 46859 ft 446 kts 295°
2026-04-20 09:39 11.02297 -4.09781 46880 ft 445 kts 295°
2026-04-20 09:40 11.05025 -4.15429 46893 ft 444 kts 295°
2026-04-20 09:40 11.07746 -4.21068 46916 ft 443 kts 295°
2026-04-20 09:41 11.10459 -4.26693 46914 ft 442 kts 295°
2026-04-20 09:41 11.13167 -4.32311 46904 ft 442 kts 295°
2026-04-20 09:42 11.15671 -4.38011 46918 ft 440 kts 291°
2026-04-20 09:42 11.17978 -4.43783 46904 ft 440 kts 292°
2026-04-20 09:43 11.20284 -4.49554 46891 ft 440 kts 291°
2026-04-20 09:43 11.22582 -4.55322 46878 ft 439 kts 292°
2026-04-20 09:44 11.24882 -4.61085 46869 ft 439 kts 291°
2026-04-20 09:44 11.27176 -4.66849 46857 ft 439 kts 291°
2026-04-20 09:45 11.29470 -4.72605 46861 ft 438 kts 291°
2026-04-20 09:45 11.31758 -4.78361 46863 ft 438 kts 291°
2026-04-20 09:46 11.34047 -4.84115 46858 ft 438 kts 291°
2026-04-20 09:46 11.36334 -4.89869 46860 ft 438 kts 291°
2026-04-20 09:47 11.38619 -4.95623 46858 ft 438 kts 291°
2026-04-20 09:47 11.40901 -5.01374 46861 ft 438 kts 291°
2026-04-20 09:48 11.43182 -5.07125 46859 ft 437 kts 291°
2026-04-20 09:48 11.45476 -5.12913 46864 ft 437 kts 291°
2026-04-20 09:49 11.47751 -5.18657 46870 ft 437 kts 291°
2026-04-20 09:49 11.50023 -5.24398 46873 ft 436 kts 291°
2026-04-20 09:50 11.52293 -5.30135 46866 ft 436 kts 291°
2026-04-20 09:50 11.54560 -5.35867 46872 ft 436 kts 291°
2026-04-20 09:51 11.56809 -5.41558 46869 ft 435 kts 291°
2026-04-20 09:51 11.59068 -5.47279 46867 ft 435 kts 291°
2026-04-20 09:52 11.61323 -5.52993 46883 ft 434 kts 291°
2026-04-20 09:52 11.63577 -5.58706 46871 ft 434 kts 291°
2026-04-20 09:53 11.65825 -5.64412 46868 ft 433 kts 291°
2026-04-20 09:53 11.68071 -5.70111 46874 ft 433 kts 291°
2026-04-20 09:54 11.70314 -5.75811 46870 ft 433 kts 291°
2026-04-20 09:54 11.72555 -5.81507 46882 ft 432 kts 291°
2026-04-20 09:55 11.74792 -5.87200 46876 ft 432 kts 291°
2026-04-20 09:55 11.76651 -5.91932 46878 ft 432 kts 291°
2026-04-20 09:56 11.78902 -5.97664 46878 ft 432 kts 291°
2026-04-20 09:56 11.81119 -6.03315 46875 ft 432 kts 291°
2026-04-20 09:57 11.83365 -6.09043 46877 ft 432 kts 291°
2026-04-20 09:57 11.85593 -6.14730 46886 ft 431 kts 291°
2026-04-20 09:58 11.87819 -6.20414 46888 ft 431 kts 291°
2026-04-20 09:58 11.90030 -6.26063 46873 ft 431 kts 291°
2026-04-20 09:59 11.92254 -6.31751 46877 ft 431 kts 291°
2026-04-20 09:59 11.94476 -6.37437 46886 ft 431 kts 291°
2026-04-20 10:00 11.96709 -6.43156 46884 ft 431 kts 291°
2026-04-20 10:00 11.98927 -6.48838 46893 ft 430 kts 291°
2026-04-20 10:01 12.01142 -6.54521 46883 ft 431 kts 291°
2026-04-20 10:01 12.03358 -6.60205 46882 ft 431 kts 291°
2026-04-20 10:02 12.05571 -6.65887 46882 ft 430 kts 291°
2026-04-20 10:02 12.07781 -6.71566 46884 ft 430 kts 291°
2026-04-20 10:03 12.09988 -6.77242 46896 ft 430 kts 291°
2026-04-20 10:03 12.12194 -6.82918 46896 ft 430 kts 291°
2026-04-20 10:04 12.14397 -6.88591 46894 ft 429 kts 291°
2026-04-20 10:04 12.16598 -6.94260 46898 ft 429 kts 291°
2026-04-20 10:05 12.18797 -6.99931 46906 ft 429 kts 291°
2026-04-20 10:05 12.20994 -7.05600 46906 ft 429 kts 291°
2026-04-20 10:06 12.23189 -7.11268 46909 ft 429 kts 291°
2026-04-20 10:06 12.25383 -7.16937 46912 ft 429 kts 291°
2026-04-20 10:07 12.27575 -7.22603 46905 ft 429 kts 290°
2026-04-20 10:07 12.29766 -7.28272 46910 ft 429 kts 290°
2026-04-20 10:08 12.31955 -7.33939 46914 ft 429 kts 290°
2026-04-20 10:08 12.34144 -7.39611 46919 ft 429 kts 290°
2026-04-20 10:09 12.36332 -7.45284 46917 ft 429 kts 290°
2026-04-20 10:09 12.38518 -7.50957 46920 ft 429 kts 290°
2026-04-20 10:10 12.40705 -7.56634 46921 ft 429 kts 290°
2026-04-20 10:10 12.42875 -7.62274 46923 ft 429 kts 290°
2026-04-20 10:11 12.45075 -7.67995 46920 ft 429 kts 290°
2026-04-20 10:11 12.47261 -7.73683 46934 ft 429 kts 290°
2026-04-20 10:12 12.49445 -7.79368 46931 ft 429 kts 290°
2026-04-20 10:12 12.51629 -7.85060 46937 ft 430 kts 290°
2026-04-20 10:13 12.53826 -7.90745 46945 ft 430 kts 291°
2026-04-20 10:13 12.56873 -7.96023 46935 ft 434 kts 303°
2026-04-20 10:14 12.60477 -8.00974 46942 ft 434 kts 303°
2026-04-20 10:14 12.64063 -8.05936 46940 ft 434 kts 303°
2026-04-20 10:15 12.67665 -8.10897 46936 ft 434 kts 303°
2026-04-20 10:15 12.71259 -8.15866 46928 ft 434 kts 303°
2026-04-20 10:16 12.74859 -8.20835 46920 ft 434 kts 303°
2026-04-20 10:16 12.78457 -8.25811 46917 ft 435 kts 303°
2026-04-20 10:17 12.82055 -8.30785 46916 ft 434 kts 303°
2026-04-20 10:17 12.85626 -8.35728 46913 ft 434 kts 303°
2026-04-20 10:18 12.89222 -8.40706 46912 ft 435 kts 303°
2026-04-20 10:18 12.92815 -8.45685 46915 ft 434 kts 303°
2026-04-20 10:19 12.96405 -8.50660 46910 ft 434 kts 303°
2026-04-20 10:19 12.99993 -8.55637 46904 ft 434 kts 303°
2026-04-20 10:20 13.03577 -8.60609 46909 ft 433 kts 303°
2026-04-20 10:20 13.07158 -8.65582 46905 ft 433 kts 303°
2026-04-20 10:21 13.10737 -8.70553 46899 ft 433 kts 303°
2026-04-20 10:21 13.14311 -8.75520 46906 ft 432 kts 303°
2026-04-20 10:22 13.17842 -8.80432 46906 ft 432 kts 303°
2026-04-20 10:22 13.21408 -8.85393 46900 ft 432 kts 303°
2026-04-20 10:23 13.24969 -8.90351 46893 ft 431 kts 303°
2026-04-20 10:23 13.28525 -8.95305 46890 ft 431 kts 303°
2026-04-20 10:24 13.32069 -9.00242 47046 ft 427 kts 303°
2026-04-20 10:24 13.33824 -9.02690 47155 ft 425 kts 303°
2026-04-20 10:24 13.35569 -9.05125 47268 ft 423 kts 303°
2026-04-20 10:25 13.37309 -9.07552 47376 ft 421 kts 303°
2026-04-20 10:25 13.39040 -9.09967 47478 ft 419 kts 303°
2026-04-20 10:25 13.40765 -9.12375 47580 ft 418 kts 303°
2026-04-20 10:25 13.42485 -9.14778 47692 ft 417 kts 303°
2026-04-20 10:26 13.44199 -9.17171 47796 ft 415 kts 303°
2026-04-20 10:26 13.45907 -9.19557 47896 ft 414 kts 303°
2026-04-20 10:26 13.47610 -9.21937 48007 ft 413 kts 303°
2026-04-20 10:26 13.49310 -9.24314 48110 ft 412 kts 303°
2026-04-20 10:27 13.52702 -9.29058 48318 ft 411 kts 303°
2026-04-20 10:27 13.54391 -9.31421 48441 ft 409 kts 303°
2026-04-20 10:27 13.56074 -9.33776 48561 ft 408 kts 303°
2026-04-20 10:28 13.57751 -9.36124 48671 ft 408 kts 303°
2026-04-20 10:28 13.59428 -9.38472 48777 ft 407 kts 303°
2026-04-20 10:28 13.61101 -9.40814 48893 ft 406 kts 303°
2026-04-20 10:28 13.62771 -9.43154 49009 ft 405 kts 303°
2026-04-20 10:29 13.64437 -9.45489 49115 ft 405 kts 303°
2026-04-20 10:29 13.66099 -9.47818 49222 ft 404 kts 303°
2026-04-20 10:29 13.67759 -9.50145 49337 ft 403 kts 303°
2026-04-20 10:29 13.69418 -9.52472 49455 ft 403 kts 303°
2026-04-20 10:30 13.71071 -9.54792 49567 ft 402 kts 303°
2026-04-20 10:30 13.72722 -9.57108 49677 ft 401 kts 303°
2026-04-20 10:30 13.74369 -9.59420 49790 ft 400 kts 303°
2026-04-20 10:30 13.76014 -9.61729 49901 ft 400 kts 303°
2026-04-20 10:31 13.77654 -9.64032 50013 ft 399 kts 303°
2026-04-20 10:31 13.79290 -9.66330 50117 ft 398 kts 303°
2026-04-20 10:31 13.80924 -9.68627 50227 ft 397 kts 303°
2026-04-20 10:31 13.82552 -9.70914 50332 ft 396 kts 303°
2026-04-20 10:32 13.84173 -9.73194 50443 ft 394 kts 303°
2026-04-20 10:32 13.85790 -9.75467 50553 ft 393 kts 303°
2026-04-20 10:32 13.87401 -9.77734 50662 ft 392 kts 303°
2026-04-20 10:32 13.89005 -9.79991 50765 ft 390 kts 303°
2026-04-20 10:33 13.92202 -9.84491 50835 ft 390 kts 303°
2026-04-20 10:33 13.95411 -9.89012 50842 ft 392 kts 303°
2026-04-20 10:34 13.98634 -9.93553 50860 ft 394 kts 303°
2026-04-20 10:35 14.03494 -10.00405 50854 ft 396 kts 303°
2026-04-20 10:35 14.06753 -10.04999 50855 ft 398 kts 303°
2026-04-20 10:36 14.10003 -10.09582 50860 ft 399 kts 303°
2026-04-20 10:36 14.13280 -10.14206 50851 ft 400 kts 303°
2026-04-20 10:37 14.16564 -10.18842 50851 ft 401 kts 303°
2026-04-20 10:37 14.19849 -10.23483 50861 ft 401 kts 303°
2026-04-20 10:38 14.22582 -10.27345 50853 ft 401 kts 303°
2026-04-20 10:38 14.25869 -10.31993 50855 ft 401 kts 303°
2026-04-20 10:39 14.29155 -10.36641 50848 ft 401 kts 303°
2026-04-20 10:39 14.32440 -10.41292 50859 ft 401 kts 303°
2026-04-20 10:40 14.35724 -10.45944 50856 ft 401 kts 303°
2026-04-20 10:40 14.39006 -10.50595 50846 ft 401 kts 303°
2026-04-20 10:41 14.42286 -10.55247 50841 ft 401 kts 303°
2026-04-20 10:41 14.45564 -10.59898 50840 ft 401 kts 303°
2026-04-20 10:42 14.48838 -10.64546 50846 ft 400 kts 303°
2026-04-20 10:42 14.52108 -10.69191 50844 ft 400 kts 303°
2026-04-20 10:43 14.55377 -10.73837 50836 ft 400 kts 303°
2026-04-20 10:43 14.58641 -10.78479 50830 ft 400 kts 303°
2026-04-20 10:44 14.61902 -10.83120 50835 ft 399 kts 303°
2026-04-20 10:44 14.65160 -10.87758 50830 ft 398 kts 303°
2026-04-20 10:45 14.68409 -10.92386 50825 ft 397 kts 302°
2026-04-20 10:45 14.71656 -10.97016 50831 ft 399 kts 302°
2026-04-20 10:46 14.74914 -11.01662 50836 ft 400 kts 302°
2026-04-20 10:46 14.78173 -11.06317 50835 ft 400 kts 302°
2026-04-20 10:47 14.81435 -11.10978 50845 ft 400 kts 302°
2026-04-20 10:47 14.84699 -11.15644 50837 ft 401 kts 302°
2026-04-20 10:48 14.87963 -11.20314 50843 ft 401 kts 302°
2026-04-20 10:48 14.91230 -11.24990 50833 ft 401 kts 302°
2026-04-20 10:49 14.94498 -11.29670 50830 ft 401 kts 302°
2026-04-20 10:49 14.97764 -11.34352 50826 ft 401 kts 302°
2026-04-20 10:50 15.01028 -11.39031 50835 ft 401 kts 302°
2026-04-20 10:50 15.03817 -11.43032 50836 ft 401 kts 302°
2026-04-20 10:51 15.07077 -11.47712 50839 ft 401 kts 302°
2026-04-20 10:51 15.10332 -11.52388 50838 ft 400 kts 302°
2026-04-20 10:52 15.13586 -11.57064 50843 ft 400 kts 302°
2026-04-20 10:52 15.16836 -11.61738 50841 ft 400 kts 302°
2026-04-20 10:53 15.20083 -11.66411 50839 ft 400 kts 302°
2026-04-20 10:53 15.23325 -11.71079 50843 ft 399 kts 302°
2026-04-20 10:54 15.26566 -11.75749 50840 ft 399 kts 302°
2026-04-20 10:54 15.29803 -11.80415 50838 ft 399 kts 302°
2026-04-20 10:55 15.33038 -11.85079 50840 ft 399 kts 302°
2026-04-20 10:55 15.36269 -11.89738 50843 ft 398 kts 302°
2026-04-20 10:56 15.39498 -11.94399 50846 ft 398 kts 302°
2026-04-20 10:56 15.42725 -11.99058 50838 ft 398 kts 302°
2026-04-20 10:57 15.45946 -12.03714 50839 ft 397 kts 302°
2026-04-20 10:57 15.49167 -12.08370 50839 ft 397 kts 302°
2026-04-20 10:58 15.52384 -12.13025 50838 ft 397 kts 302°
2026-04-20 10:58 15.55599 -12.17677 50844 ft 397 kts 302°
2026-04-20 10:59 15.58809 -12.22328 50842 ft 396 kts 302°
2026-04-20 10:59 15.62018 -12.26981 50847 ft 396 kts 302°
2026-04-20 11:00 15.65224 -12.31634 50845 ft 396 kts 302°
2026-04-20 11:00 15.68431 -12.36289 50843 ft 396 kts 302°
2026-04-20 11:01 15.71634 -12.40942 50841 ft 396 kts 302°
2026-04-20 11:01 15.74833 -12.45593 50844 ft 396 kts 302°
2026-04-20 11:02 15.78029 -12.50242 50843 ft 395 kts 302°
2026-04-20 11:02 15.81222 -12.54890 50841 ft 395 kts 302°
2026-04-20 11:03 15.84412 -12.59537 50850 ft 395 kts 302°
2026-04-20 11:03 15.87599 -12.64182 50851 ft 395 kts 302°
2026-04-20 11:04 15.90784 -12.68825 50852 ft 394 kts 302°
2026-04-20 11:04 15.93964 -12.73466 50852 ft 394 kts 302°
2026-04-20 11:05 15.97142 -12.78107 50846 ft 394 kts 302°
2026-04-20 11:05 16.00320 -12.82750 50856 ft 394 kts 302°
2026-04-20 11:06 16.03494 -12.87390 50855 ft 394 kts 302°
2026-04-20 11:06 16.06664 -12.92029 50860 ft 393 kts 302°
2026-04-20 11:07 16.09833 -12.96667 50862 ft 393 kts 302°
2026-04-20 11:07 16.13000 -13.01305 50865 ft 393 kts 302°
2026-04-20 11:08 16.16163 -13.05942 50863 ft 393 kts 302°
2026-04-20 11:08 16.19326 -13.10581 50848 ft 393 kts 302°
2026-04-20 11:09 16.22487 -13.15220 50855 ft 393 kts 302°
2026-04-20 11:09 16.25643 -13.19854 50848 ft 393 kts 302°
2026-04-20 11:10 16.28800 -13.24493 50848 ft 392 kts 302°
2026-04-20 11:10 16.31952 -13.29128 50858 ft 392 kts 301°
2026-04-20 11:11 16.35100 -13.33760 50873 ft 392 kts 301°
2026-04-20 11:11 16.38246 -13.38393 50857 ft 392 kts 301°
2026-04-20 11:12 16.41388 -13.43021 50868 ft 391 kts 301°
2026-04-20 11:12 16.44528 -13.47652 50861 ft 391 kts 301°
2026-04-20 11:13 16.47668 -13.52284 50859 ft 391 kts 301°
2026-04-20 11:13 16.50825 -13.56945 50865 ft 391 kts 301°
2026-04-20 11:14 16.53957 -13.61571 50872 ft 391 kts 301°
2026-04-20 11:14 16.57087 -13.66199 50874 ft 391 kts 301°
2026-04-20 11:15 16.60216 -13.70827 50873 ft 390 kts 301°
2026-04-20 11:15 16.63345 -13.75457 50861 ft 391 kts 301°
2026-04-20 11:16 16.66475 -13.80094 50861 ft 391 kts 301°
2026-04-20 11:16 16.69602 -13.84728 50863 ft 390 kts 301°
2026-04-20 11:17 16.72198 -13.88578 50867 ft 390 kts 301°
2026-04-20 11:17 16.75319 -13.93210 50874 ft 390 kts 301°
2026-04-20 11:18 16.78438 -13.97840 50870 ft 390 kts 301°
2026-04-20 11:18 16.81553 -14.02470 50870 ft 390 kts 301°
2026-04-20 11:19 16.84669 -14.07102 50875 ft 390 kts 301°
2026-04-20 11:19 16.87781 -14.11732 50875 ft 390 kts 301°
2026-04-20 11:20 16.90893 -14.16365 50873 ft 389 kts 301°
2026-04-20 11:20 16.94003 -14.20997 50877 ft 389 kts 301°
2026-04-20 11:21 16.97109 -14.25627 50873 ft 389 kts 301°
2026-04-20 11:21 17.00217 -14.30263 50856 ft 390 kts 301°
2026-04-20 11:22 17.03326 -14.34903 50864 ft 390 kts 301°
2026-04-20 11:22 17.06452 -14.39573 50865 ft 390 kts 301°
2026-04-20 11:23 17.09559 -14.44216 50859 ft 390 kts 301°
2026-04-20 11:23 17.12664 -14.48861 50861 ft 390 kts 301°
2026-04-20 11:24 17.15769 -14.53507 50867 ft 390 kts 301°
2026-04-20 11:24 17.18871 -14.58154 50869 ft 390 kts 301°
2026-04-20 11:25 17.21972 -14.62802 50872 ft 390 kts 301°
2026-04-20 11:25 17.25052 -14.67422 50871 ft 390 kts 301°
2026-04-20 11:26 17.28150 -14.72072 50874 ft 390 kts 301°
2026-04-20 11:26 17.31268 -14.76755 50874 ft 389 kts 301°
2026-04-20 11:27 17.34362 -14.81406 50877 ft 389 kts 301°
2026-04-20 11:27 17.37432 -14.86024 50872 ft 389 kts 301°
2026-04-20 11:28 17.40520 -14.90673 50875 ft 389 kts 301°
2026-04-20 11:28 17.43608 -14.95323 50876 ft 389 kts 301°
2026-04-20 11:29 17.46692 -14.99971 50883 ft 388 kts 301°
2026-04-20 11:29 17.49770 -15.04614 50886 ft 388 kts 301°
2026-04-20 11:30 17.52847 -15.09258 50888 ft 388 kts 301°
2026-04-20 11:30 17.55922 -15.13903 50890 ft 388 kts 301°
2026-04-20 11:31 17.58993 -15.18544 50882 ft 387 kts 301°
2026-04-20 11:31 17.62062 -15.23185 50881 ft 387 kts 301°
2026-04-20 11:32 17.65128 -15.27826 50879 ft 387 kts 301°
2026-04-20 11:32 17.68191 -15.32465 50888 ft 387 kts 301°
2026-04-20 11:33 17.71250 -15.37101 50882 ft 387 kts 301°
2026-04-20 11:33 17.74308 -15.41740 50889 ft 386 kts 300°
2026-04-20 11:34 17.77364 -15.46378 50885 ft 386 kts 300°
2026-04-20 11:34 17.80417 -15.51015 50888 ft 386 kts 300°
2026-04-20 11:35 17.83469 -15.55652 50892 ft 386 kts 300°
2026-04-20 11:35 17.86520 -15.60293 50876 ft 386 kts 300°
2026-04-20 11:36 17.89572 -15.64938 50874 ft 387 kts 300°
2026-04-20 11:36 17.92624 -15.69586 50879 ft 387 kts 300°
2026-04-20 11:37 17.95675 -15.74236 50883 ft 387 kts 300°
2026-04-20 11:37 18.00248 -15.81212 50892 ft 387 kts 300°
2026-04-20 11:38 18.03297 -15.85867 50900 ft 387 kts 300°
2026-04-20 11:38 18.06575 -15.90372 50888 ft 392 kts 307°
2026-04-20 11:39 18.10686 -15.94208 50895 ft 401 kts 316°
2026-04-20 11:39 18.15577 -15.97174 50912 ft 413 kts 326°
2026-04-20 11:40 18.21026 -15.99304 50919 ft 418 kts 330°
2026-04-20 11:40 18.26497 -16.01393 50921 ft 418 kts 330°
2026-04-20 11:41 18.31982 -16.03462 50922 ft 419 kts 330°
2026-04-20 11:41 18.37469 -16.05547 50904 ft 419 kts 330°
2026-04-20 11:42 18.42960 -16.07628 50902 ft 420 kts 330°
2026-04-20 11:42 18.48457 -16.09715 50893 ft 420 kts 330°
2026-04-20 11:43 18.53956 -16.11804 50900 ft 420 kts 330°
2026-04-20 11:43 18.59460 -16.13896 50913 ft 420 kts 330°
2026-04-20 11:44 18.64965 -16.15991 50906 ft 421 kts 330°
2026-04-20 11:44 18.70473 -16.18087 50912 ft 421 kts 330°
2026-04-20 11:45 18.75985 -16.20187 50918 ft 421 kts 330°
2026-04-20 11:45 18.81498 -16.22289 50910 ft 421 kts 330°
2026-04-20 11:46 18.86979 -16.24380 50921 ft 422 kts 330°
2026-04-20 11:46 18.92497 -16.26486 50930 ft 422 kts 330°
2026-04-20 11:47 18.98022 -16.28597 50920 ft 422 kts 330°
2026-04-20 11:47 19.03547 -16.30709 50923 ft 422 kts 330°
2026-04-20 11:48 19.09073 -16.32823 50931 ft 422 kts 330°
2026-04-20 11:48 19.14603 -16.34940 50931 ft 422 kts 330°
2026-04-20 11:49 19.20130 -16.37057 50931 ft 423 kts 330°
2026-04-20 11:49 19.25660 -16.39177 50929 ft 423 kts 330°
2026-04-20 11:50 19.31191 -16.41299 50929 ft 423 kts 330°
2026-04-20 11:50 19.36725 -16.43424 50937 ft 423 kts 330°
2026-04-20 11:51 19.42260 -16.45550 50939 ft 423 kts 330°
2026-04-20 11:51 19.47798 -16.47680 50929 ft 424 kts 330°
2026-04-20 11:52 19.53341 -16.49813 50923 ft 424 kts 330°
2026-04-20 11:52 19.58886 -16.51949 50933 ft 424 kts 330°
2026-04-20 11:53 19.64432 -16.54087 50936 ft 424 kts 330°
2026-04-20 11:53 19.69982 -16.56229 50942 ft 425 kts 330°
2026-04-20 11:54 19.75539 -16.58374 50941 ft 425 kts 330°
2026-04-20 11:54 19.81100 -16.60523 50938 ft 426 kts 330°
2026-04-20 11:55 19.86668 -16.62675 50941 ft 426 kts 330°
2026-04-20 11:55 19.92239 -16.64831 50939 ft 426 kts 330°
2026-04-20 11:56 19.97816 -16.66991 50941 ft 427 kts 330°
2026-04-20 11:56 20.03398 -16.69154 50948 ft 427 kts 330°
2026-04-20 11:57 20.08984 -16.71320 50950 ft 427 kts 330°
2026-04-20 11:57 20.14573 -16.73490 50946 ft 428 kts 330°
2026-04-20 11:58 20.20166 -16.75662 50947 ft 428 kts 330°
2026-04-20 11:58 20.25764 -16.77838 50944 ft 429 kts 330°
2026-04-20 11:59 20.30419 -16.79649 50952 ft 429 kts 330°
2026-04-20 11:59 20.36026 -16.81831 50954 ft 429 kts 330°
2026-04-20 12:00 20.41642 -16.84019 50952 ft 430 kts 330°
2026-04-20 12:00 20.47262 -16.86210 50953 ft 430 kts 330°
2026-04-20 12:01 20.52888 -16.88406 50954 ft 431 kts 330°
2026-04-20 12:01 20.58525 -16.90607 50952 ft 431 kts 330°
2026-04-20 12:02 20.64165 -16.92811 50956 ft 432 kts 330°
2026-04-20 12:02 20.69815 -16.95020 50970 ft 432 kts 330°
2026-04-20 12:03 20.75471 -16.97234 50963 ft 433 kts 330°
2026-04-20 12:03 20.81129 -16.99450 50981 ft 433 kts 330°
2026-04-20 12:04 20.86982 -17.01257 50919 ft 447 kts 340°
2026-04-20 12:04 20.93240 -17.01618 50934 ft 466 kts 353°
2026-04-20 12:05 20.96495 -17.01184 50949 ft 477 kts
2026-04-20 12:05 20.99748 -17.00303 50950 ft 488 kts
2026-04-20 12:05 21.06184 -16.97830 50955 ft 491 kts
2026-04-20 12:06 21.12625 -16.95372 50942 ft 492 kts
2026-04-20 12:06 21.15891 -16.94119 50241 ft 507 kts
2026-04-20 12:06 21.19238 -16.92830 49595 ft 514 kts 10°
2026-04-20 12:07 21.22594 -16.91525 48914 ft 512 kts 10°
2026-04-20 12:07 21.25941 -16.90230 48232 ft 511 kts 10°
2026-04-20 12:07 21.29286 -16.88950 47552 ft 510 kts
2026-04-20 12:07 21.32622 -16.87669 46873 ft 510 kts 10°
2026-04-20 12:08 21.35959 -16.86369 46195 ft 511 kts 11°
2026-04-20 12:08 21.39284 -16.85022 45514 ft 512 kts 11°
2026-04-20 12:08 21.42619 -16.83660 44836 ft 512 kts 11°
2026-04-20 12:08 21.45953 -16.82332 44096 ft 511 kts 11°
2026-04-20 12:09 21.49292 -16.81015 43431 ft 512 kts 11°
2026-04-20 12:09 21.52636 -16.79677 42753 ft 514 kts 11°
2026-04-20 12:09 21.55978 -16.78323 42072 ft 515 kts 11°
2026-04-20 12:09 21.59341 -16.76972 41392 ft 516 kts 11°
2026-04-20 12:10 21.62709 -16.75629 40714 ft 517 kts 11°
2026-04-20 12:10 21.66082 -16.74279 40032 ft 518 kts 11°
2026-04-20 12:10 21.69460 -16.72917 39347 ft 519 kts 11°
2026-04-20 12:10 21.72849 -16.71552 38663 ft 520 kts 11°
2026-04-20 12:11 21.76245 -16.70191 37919 ft 522 kts 11°
2026-04-20 12:11 21.79655 -16.68823 37234 ft 525 kts 12°
2026-04-20 12:11 21.83083 -16.67443 36537 ft 527 kts 12°
2026-04-20 12:11 21.86526 -16.66055 35841 ft 528 kts 13°
2026-04-20 12:12 21.89990 -16.64725 35140 ft 529 kts 12°
2026-04-20 12:12 21.93587 -16.63406 34422 ft 531 kts 12°
2026-04-20 12:12 21.96974 -16.62128 33708 ft 534 kts 14°
2026-04-20 12:12 22.00472 -16.60756 32993 ft 536 kts 14°
2026-04-20 12:13 22.03988 -16.59393 32284 ft 538 kts 14°
2026-04-20 12:13 22.07525 -16.58061 31575 ft 540 kts 14°
2026-04-20 12:13 22.11086 -16.56715 30858 ft 543 kts 14°
2026-04-20 12:13 22.14646 -16.55339 30140 ft 544 kts 15°
2026-04-20 12:14 22.18191 -16.53964 29389 ft 537 kts 15°
2026-04-20 12:14 22.21686 -16.52628 28677 ft 532 kts 15°
2026-04-20 12:14 22.25161 -16.51308 27983 ft 527 kts 15°
2026-04-20 12:14 22.28599 -16.49988 27287 ft 522 kts 15°
2026-04-20 12:15 22.32000 -16.48673 26606 ft 517 kts 15°
2026-04-20 12:15 22.35372 -16.47376 25926 ft 512 kts 15°
2026-04-20 12:15 22.38717 -16.46096 25252 ft 508 kts 15°
2026-04-20 12:15 22.42030 -16.44824 24589 ft 503 kts 15°
2026-04-20 12:16 22.45315 -16.43557 23929 ft 499 kts 16°
2026-04-20 12:16 22.48572 -16.42301 23234 ft 495 kts 16°
2026-04-20 12:16 22.51798 -16.41060 22575 ft 490 kts 16°
2026-04-20 12:16 22.54996 -16.39829 21923 ft 486 kts 16°
2026-04-20 12:17 22.58169 -16.38605 21291 ft 482 kts 16°
2026-04-20 12:17 22.61317 -16.37390 20657 ft 478 kts 17°
2026-04-20 12:17 22.64438 -16.36186 20030 ft 475 kts 17°
2026-04-20 12:17 22.67536 -16.34990 19405 ft 470 kts 17°
2026-04-20 12:18 22.70609 -16.33803 18792 ft 467 kts 17°
2026-04-20 12:18 22.73657 -16.32625 18163 ft 464 kts 17°
2026-04-20 12:18 22.76687 -16.31453 17521 ft 462 kts 17°
2026-04-20 12:18 22.79703 -16.30287 16918 ft 460 kts 17°
2026-04-20 12:19 22.82709 -16.29124 16310 ft 458 kts 17°
2026-04-20 12:19 22.85699 -16.27968 15708 ft 456 kts 17°
2026-04-20 12:19 22.88679 -16.26816 15110 ft 454 kts 17°
2026-04-20 12:19 22.91646 -16.25670 14505 ft 452 kts 17°
2026-04-20 12:20 22.94602 -16.24529 13918 ft 451 kts 18°
2026-04-20 12:20 22.97551 -16.23391 13293 ft 448 kts 18°
2026-04-20 12:20 23.00481 -16.22261 12692 ft 446 kts 18°
2026-04-20 12:20 23.03394 -16.21138 12116 ft 443 kts 18°
2026-04-20 12:21 23.06290 -16.20022 11536 ft 439 kts 18°
2026-04-20 12:21 23.09054 -16.18954 10972 ft 405 kts 18°
2026-04-20 12:21 23.11617 -16.17958 10458 ft 378 kts 18°
2026-04-20 12:21 23.13999 -16.17027 9982 ft 335 kts 18°
2026-04-20 12:22 23.16121 -16.16189 9526 ft 328 kts 18°
2026-04-20 12:22 23.18239 -16.15354 9096 ft 321 kts 18°
2026-04-20 12:22 23.20322 -16.14533 8680 ft 316 kts 18°
2026-04-20 12:22 23.22385 -16.13721 8270 ft 314 kts 18°
2026-04-20 12:23 23.24430 -16.12915 7865 ft 312 kts 18°
2026-04-20 12:23 23.26464 -16.12115 7456 ft 310 kts 18°
2026-04-20 12:23 23.28490 -16.11319 7049 ft 310 kts 17°
2026-04-20 12:23 23.30511 -16.10525 6643 ft 308 kts 18°
2026-04-20 12:24 23.32514 -16.09739 6230 ft 305 kts 17°
2026-04-20 12:24 23.34495 -16.08961 5815 ft 298 kts 17°
2026-04-20 12:24 23.36433 -16.08199 5422 ft 293 kts 17°
2026-04-20 12:24 23.38331 -16.07452 5033 ft 288 kts 17°
2026-04-20 12:25 23.40200 -16.06716 4649 ft 283 kts 17°
2026-04-20 12:25 23.42034 -16.05994 4271 ft 277 kts 18°
2026-04-20 12:25 23.43823 -16.05290 3944 ft 270 kts 18°
2026-04-20 12:25 23.45585 -16.04621 3602 ft 265 kts 17°
2026-04-20 12:26 23.47312 -16.03993 3250 ft 261 kts 18°
2026-04-20 12:26 23.49002 -16.03336 2971 ft 253 kts 19°
2026-04-20 12:26 23.50656 -16.02675 3001 ft 255 kts 19°
2026-04-20 12:26 23.52324 -16.02020 2967 ft 257 kts 19°
2026-04-20 12:27 23.53981 -16.01330 2751 ft 250 kts 23°
2026-04-20 12:27 23.55514 -16.00599 2575 ft 232 kts 21°
2026-04-20 12:27 23.57016 -15.99956 2435 ft 234 kts 20°
2026-04-20 12:27 23.58502 -15.99295 2299 ft 229 kts 21°
2026-04-20 12:28 23.59956 -15.98624 2171 ft 227 kts 21°
2026-04-20 12:28 23.61412 -15.97956 1959 ft 227 kts 21°
2026-04-20 12:28 23.62836 -15.97306 1683 ft 217 kts 20°
2026-04-20 12:28 23.64179 -15.96694 1396 ft 201 kts 21°
2026-04-20 12:29 23.65416 -15.96130 1144 ft 180 kts 20°
2026-04-20 12:29 23.66480 -15.95643 908 ft 157 kts 20°
2026-04-20 12:29 23.67453 -15.95200 717 ft 147 kts 20°
2026-04-20 12:29 23.68371 -15.94782 526 ft 136 kts 21°
2026-04-20 12:30 23.69222 -15.94425 312 ft 126 kts 19°
2026-04-20 12:30 23.70004 -15.94045 137 ft 121 kts 22°
2026-04-20 12:30 23.70771 -15.93682 54 ft 118 kts 23°
2026-04-20 12:30 23.71444 -15.93376 41 ft 90 kts 22°
2026-04-20 12:31 23.71888 -15.93171 37 ft 63 kts 23°
2026-04-20 12:31 23.72268 -15.92993 36 ft 50 kts 22°
2026-04-20 12:31 23.72533 -15.92868 35 ft 26 kts 36°
2026-04-20 12:31 23.72523 -15.92722 34 ft 25 kts 147°
2026-04-20 12:32 23.72396 -15.92738 36 ft 17 kts 203°
2026-04-20 12:32 23.72288 -15.92787 38 ft 16 kts 202°
2026-04-20 12:32 23.72172 -15.92841 40 ft 22 kts 203°
2026-04-20 12:32 23.71998 -15.92923 37 ft 32 kts 201°
2026-04-20 12:33 23.71792 -15.93016 35 ft 32 kts 202°
2026-04-20 12:33 23.71596 -15.93107 35 ft 21 kts 204°
2026-04-20 12:33 23.71505 -15.93088 34 ft 15 kts 109°
2026-04-20 12:33 23.71475 -15.93007 31 ft 0 kts 112°
2026-04-20 12:34 23.71472 -15.92999 31 ft 2 kts 112°
2026-04-20 12:34 23.71469 -15.92990 31 ft 1 kts 112°
2026-04-20 12:34 23.71468 -15.92988 31 ft 0 kts 112°
2026-04-20 12:35 23.71472 -15.92954 31 ft 5 kts 44°
2026-04-20 12:35 23.71485 -15.92920 30 ft 6 kts 101°
2026-04-20 12:35 23.71478 -15.92867 30 ft 7 kts 59°
2026-04-20 12:36 23.71508 -15.92874 30 ft 4 kts 290°
2026-04-20 12:36 23.71495 -15.92919 30 ft 11 kts 246°
2026-04-20 12:36 23.71433 -15.92940 31 ft 10 kts 142°
2026-04-20 12:36 23.71435 -15.92874 30 ft 9 kts 32°
2026-04-20 12:37 23.71461 -15.92900 30 ft 5 kts 263°
2026-04-20 12:37 23.71456 -15.92913 30 ft 0 kts 242°
2026-04-20 12:37 23.71434 -15.92947 31 ft 13 kts 218°
2026-04-20 12:37 23.71406 -15.92902 30 ft 10 kts 48°
2026-04-20 12:38 23.71439 -15.92889 30 ft 6 kts 338°
2026-04-20 12:38 23.71473 -15.92912 30 ft 4 kts 339°
2026-04-20 12:38 23.71476 -15.92914 30 ft 0 kts 334°